GW5108 Weather Reports


time (UTC)temp
C
wind
direction
speed
KPH
gust
KPH
rain 1hr
cm
rain 24hr
cm
rain mn
cm
humidity
%
barometer
mb
20260502170518 9 313 9.7 20.9 0.00 0.00 0.00 49 1017.1
20260502164002 9 305 6.4 20.9 0.00 0.00 0.00 48 1017.4
20260502163457 9 341 11.3 24.1 0.00 0.00 0.00 52 1017.3
20260502162955 9 32 4.8 12.9 0.00 0.00 0.00 49 1017.1
20260502162452 9 13 12.9 22.5 0.00 0.00 0.00 47 1017.3
20260502161949 9 298 17.7 22.5 0.00 0.00 0.00 48 1017.3
20260502161445 9 306 12.9 20.9 0.00 0.00 0.00 50 1017.3
20260502160943 8 350 12.9 22.5 0.00 0.00 0.00 53 1017.5
20260502160441 9 330 17.7 22.5 0.00 0.00 0.00 53 1017.6
20260502151913 8 280 6.4 14.5 0.00 0.00 0.00 51 1017.6
20260502151409 8 0 14.5 17.7 0.00 0.00 0.00 52 1017.5
20260502150907 8 22 6.4 17.7 0.00 0.00 0.00 52 1017.5
20260502150403 8 336 11.3 17.7 0.00 0.00 0.00 53 1017.9
20260502130249 5 297 3.2 4.8 0.00 0.00 0.00 77 1017.7
20260502123735 4 331 3.2 6.4 0.00 0.00 0.00 81 1017.6
20260502123232 4 324 1.6 6.4 0.00 0.00 0.00 81 1017.9
20260502122728 4 296 6.4 6.4 0.00 0.00 0.00 82 1017.7
20260502122224 3 293 6.4 9.7 0.00 0.00 0.00 82 1017.6
20260502121723 3 322 3.2 4.8 0.00 0.00 0.00 83 1017.6
20260502121220 3 299 4.8 4.8 0.00 0.00 0.00 84 1017.6
20260502120716 3 296 6.4 9.7 0.00 0.00 0.00 85 1017.7
20260502120213 3 308 3.2 6.4 0.00 0.00 0.00 85 1017.5
20260502115711 3 352 1.6 6.4 0.00 0.00 0.00 85 1017.7
20260502115208 3 359 3.2 4.8 0.00 0.00 0.00 85 1017.7
20260502114703 3 15 3.2 9.7 0.00 0.00 0.00 84 1017.6
20260502114201 3 350 3.2 6.4 0.00 0.00 0.00 85 1017.4
20260502113658 3 325 1.6 3.2 0.00 0.00 0.00 85 1017.5
20260502113156 3 305 3.2 4.8 0.00 0.00 0.00 86 1017.5
20260502112654 3 305 1.6 3.2 0.00 0.00 0.00 87 1017.6
20260502112151 2 316 1.6 3.2 0.00 0.00 0.00 88 1017.3
20260502111648 2 319 1.6 3.2 0.00 0.00 0.00 88 1017.4
20260502111146 2 320 0.0 1.6 0.00 0.00 0.00 88 1017.5
20260502110643 2 320 1.6 3.2 0.00 0.00 0.00 88 1017.3
20260502110140 2 307 3.2 3.2 0.00 0.00 0.00 88 1017.4
20260502105638 2 332 1.6 3.2 0.00 0.00 0.00 88 1017.1
20260502105135 2 333 3.2 3.2 0.00 0.00 0.00 87 1017.3
20260502104632 2 323 1.6 3.2 0.00 0.00 0.00 87 1017.2
20260502104129 2 328 3.2 4.8 0.00 0.00 0.00 87 1017.2
20260502103627 2 324 1.6 3.2 0.00 0.00 0.00 87 1017.2
20260502103125 2 306 1.6 4.8 0.00 0.00 0.00 86 1017.4
20260502102621 2 313 3.2 6.4 0.00 0.00 0.00 86 1017.6
20260502102112 2 319 3.2 6.4 0.00 0.00 0.00 86 1017.6
20260502101610 2 317 3.2 3.2 0.00 0.00 0.00 85 1017.5
20260502101108 2 292 1.6 3.2 0.00 0.00 0.00 84 1017.4
20260502100607 2 297 3.2 4.8 0.00 0.00 0.00 85 1017.4
20260502100105 2 314 9.7 11.3 0.00 0.00 0.00 85 1017.5
20260502091038 3 321 3.2 4.8 0.00 0.00 0.00 80 1017.6
20260502090535 3 314 3.2 4.8 0.00 0.00 0.00 80 1017.7
20260502071430 5 322 6.4 11.3 0.00 0.00 0.00 69 1017.2
20260502070928 5 322 4.8 11.3 0.00 0.00 0.00 69 1017.2
20260502070426 5 315 6.4 9.7 0.00 0.00 0.00 69 1017.3
20260502065924 5 321 3.2 9.7 0.00 0.00 0.00 70 1017.3
20260502065422 5 315 8.0 11.3 0.00 0.00 0.00 69 1017.6
20260502064920 5 319 4.8 9.7 0.00 0.00 0.00 70 1017.4
20260502064417 5 312 9.7 11.3 0.00 0.00 0.00 68 1017.5
20260502063914 5 321 3.2 4.8 0.00 0.00 0.00 70 1017.4
20260502063412 5 301 6.4 9.7 0.00 0.00 0.00 69 1017.5
20260502062910 5 316 4.8 6.4 0.00 0.00 0.00 70 1017.6
20260502062407 5 328 4.8 6.4 0.00 0.00 0.00 69 1017.7
20260502061906 6 320 6.4 14.5 0.00 0.00 0.00 68 1017.9
20260502061403 6 324 3.2 9.7 0.00 0.00 0.00 68 1018.0
20260502060859 6 309 6.4 11.3 0.00 0.00 0.00 68 1017.7
20260502060358 6 349 3.2 4.8 0.00 0.00 0.00 69 1018.0
20260502055856 6 19 6.4 11.3 0.00 0.00 0.00 67 1017.9
20260502055354 6 296 4.8 9.7 0.00 0.00 0.00 71 1018.0
20260502054854 6 318 11.3 12.9 0.00 0.00 0.00 74 1018.0
20260502054351 6 328 6.4 9.7 0.00 0.00 0.00 75 1018.0
20260502053848 6 11 3.2 11.3 0.00 0.00 0.00 75 1017.9
20260502053345 6 305 9.7 16.1 0.00 0.00 0.00 75 1018.0
20260502052843 6 12 11.3 14.5 0.00 0.00 0.00 75 1017.9
20260502052341 6 336 11.3 17.7 0.00 0.00 0.00 78 1017.9
20260502051838 6 336 6.4 12.9 0.00 0.00 0.00 79 1018.0
20260502051337 6 344 14.5 14.5 0.00 0.00 0.00 79 1017.9
20260502050833 6 334 6.4 16.1 0.00 0.00 0.00 80 1017.5
20260502050329 7 310 11.3 16.1 0.00 0.00 0.00 81 1017.6
20260502045826 7 308 8.0 14.5 0.00 0.00 0.00 81 1017.6
20260502045323 7 310 4.8 9.7 0.00 0.00 0.00 81 1017.7
20260502044821 7 308 6.4 9.7 0.00 0.00 0.00 81 1017.9
20260502044316 7 309 12.9 14.5 0.00 0.00 0.00 80 1017.7
20260502043814 7 348 8.0 12.9 0.00 0.00 0.00 80 1018.0
20260502043311 7 341 9.7 12.9 0.00 0.00 0.00 80 1018.0
20260502042811 7 323 9.7 14.5 0.00 0.00 0.00 79 1018.1
20260502042308 7 314 8.0 17.7 0.00 0.00 0.00 79 1018.0
20260502041806 7 339 11.3 12.9 0.00 0.00 0.00 78 1018.0
20260502041303 7 333 6.4 6.4 0.00 0.00 0.00 79 1017.7
20260502040800 7 321 9.7 11.3 0.00 0.00 0.00 78 1017.7
20260502040256 7 346 4.8 11.3 0.00 0.00 0.00 78 1017.7
20260502035752 7 310 4.8 6.4 0.00 0.00 0.00 78 1018.0
20260502035249 7 313 6.4 12.9 0.00 0.00 0.00 78 1017.7
20260502034747 7 327 6.4 16.1 0.00 0.00 0.00 78 1017.7
20260502034245 7 7 3.2 4.8 0.00 0.00 0.00 77 1017.9
20260502033743 7 347 6.4 12.9 0.00 0.00 0.00 77 1018.1
20260502033240 7 327 3.2 9.7 0.00 0.00 0.00 77 1018.0
20260502032737 7 321 3.2 11.3 0.00 0.00 0.00 76 1018.0
20260502032233 7 1 8.0 11.3 0.00 0.00 0.00 76 1018.1
20260502031732 7 326 9.7 14.5 0.00 0.00 0.00 75 1018.0
20260502031229 7 341 17.7 24.1 0.00 0.00 0.00 74 1018.1
20260502030727 7 342 9.7 17.7 0.00 0.00 0.00 75 1017.9
20260502030225 7 328 9.7 12.9 0.00 0.00 0.00 76 1018.1
20260502025721 8 330 8.0 14.5 0.00 0.00 0.00 75 1018.1
20260502025220 8 313 4.8 9.7 0.00 0.00 0.00 76 1018.0
20260502024717 8 344 11.3 16.1 0.00 0.00 0.00 76 1018.0
20260502024215 8 333 4.8 11.3 0.00 0.00 0.00 75 1017.7
20260502023713 8 322 6.4 9.7 0.00 0.00 0.00 75 1017.7
20260502023210 8 315 6.4 11.3 0.00 0.00 0.00 75 1017.7
20260502022707 8 318 8.0 17.7 0.00 0.00 0.00 75 1017.6
20260502022204 8 342 16.1 17.7 0.00 0.00 0.00 74 1017.4
20260502021701 8 8 8.0 14.5 0.00 0.00 0.00 73 1017.3
20260502021158 8 3 11.3 16.1 0.00 0.00 0.00 73 1017.1
20260502020655 8 339 16.1 17.7 0.00 0.00 0.00 74 1017.6
20260502020152 8 322 8.0 16.1 0.00 0.00 0.00 75 1017.3
20260502015650 8 335 14.5 16.1 0.00 0.00 0.00 74 1017.1
20260502015146 8 326 11.3 20.9 0.00 0.00 0.00 75 1017.0
20260502014644 8 323 9.7 16.1 0.00 0.00 0.00 75 1016.7
20260502014140 8 330 11.3 14.5 0.00 0.00 0.00 76 1016.7
20260502013636 8 357 8.0 9.7 0.00 0.00 0.00 76 1016.6
20260502013132 9 326 11.3 16.1 0.00 0.00 0.00 75 1016.6
20260502012630 8 346 11.3 14.5 0.00 0.00 0.00 76 1016.6
20260502012128 8 330 9.7 14.5 0.00 0.00 0.00 76 1016.3
20260502011624 9 328 14.5 25.7 0.00 0.00 0.00 77 1016.5
20260502011120 9 294 11.3 16.1 0.00 0.00 0.00 78 1016.5
20260502010618 9 324 11.3 16.1 0.00 0.00 0.00 78 1016.2
20260502010114 9 6 8.0 12.9 0.00 0.00 0.00 78 1016.0
20260502005612 9 324 8.0 20.9 0.00 0.00 0.00 78 1015.9
20260502005109 9 348 9.7 12.9 0.00 0.00 0.00 77 1015.9
20260502004604 9 311 12.9 16.1 0.00 0.00 0.00 77 1015.8
20260502004102 9 318 8.0 11.3 0.00 0.00 0.00 76 1015.7
20260502003600 9 333 9.7 16.1 0.00 0.00 0.00 76 1015.6
20260502003057 9 337 14.5 29.0 0.00 0.00 0.00 74 1015.6
20260502002553 9 320 9.7 12.9 0.00 0.00 0.00 74 1015.7
20260502002050 10 333 9.7 14.5 0.00 0.00 0.00 73 1015.5
20260502001548 10 333 6.4 14.5 0.00 0.00 0.00 72 1015.4
20260502001044 10 328 11.3 17.7 0.00 0.00 0.00 70 1015.2
20260502000543 10 310 14.5 20.9 0.00 0.00 0.00 69 1015.2
20260502000040 10 326 9.7 14.5 0.00 0.00 0.00 68 1015.1
20260501235535 11 306 11.3 33.8 0.00 0.00 0.00 68 1014.6
20260501235031 12 307 14.5 22.5 0.00 0.00 0.00 61 1014.4
20260501234527 12 339 6.4 17.7 0.00 0.00 0.00 57 1014.3
20260501234026 13 312 19.3 30.6 0.00 0.00 0.00 50 1013.9
20260501233523 14 316 6.4 12.9 0.00 0.00 0.00 47 1013.8
20260501233021 14 352 9.7 11.3 0.00 0.00 0.00 46 1013.8
20260501232516 15 301 11.3 27.4 0.00 0.00 0.00 44 1013.7
20260501232013 15 310 16.1 24.1 0.00 0.00 0.00 41 1013.5
20260501231511 15 316 9.7 17.7 0.00 0.00 0.00 41 1013.7
20260501231009 15 311 14.5 20.9 0.00 0.00 0.00 41 1013.7
20260501230508 15 316 11.3 22.5 0.00 0.00 0.00 41 1013.7
20260501230005 15 314 9.7 17.7 0.00 0.00 0.00 42 1013.4
20260501225503 16 279 17.7 20.9 0.00 0.00 0.00 42 1013.4
20260501224958 16 310 19.3 20.9 0.00 0.00 0.00 37 1013.5
20260501224456 16 305 16.1 22.5 0.00 0.00 0.00 37 1013.7
20260501223953 15 312 14.5 17.7 0.00 0.00 0.00 39 1013.4
20260501223449 16 257 9.7 40.2 0.00 0.00 0.00 38 1013.4
20260501222944 16 294 17.7 22.5 0.00 0.00 0.00 35 1013.3
20260501222442 16 306 19.3 20.9 0.00 0.00 0.00 35 1013.7
20260501221938 16 319 16.1 22.5 0.00 0.00 0.00 34 1013.5
20260501221436 16 316 19.3 24.1 0.00 0.00 0.00 36 1013.4
20260501220933 16 284 16.1 17.7 0.00 0.00 0.00 33 1013.7
20260501220431 16 252 6.4 14.5 0.00 0.00 0.00 36 1013.7
20260501215926 17 286 12.9 22.5 0.00 0.00 0.00 35 1013.7
20260501215424 16 277 9.7 24.1 0.00 0.00 0.00 35 1013.5
20260501214919 16 318 16.1 29.0 0.00 0.00 0.00 36 1013.5
20260501214415 16 312 9.7 16.1 0.00 0.00 0.00 36 1013.7
20260501213910 16 275 20.9 35.4 0.00 0.00 0.00 34 1013.4
20260501213408 17 310 14.5 22.5 0.00 0.00 0.00 39 1013.5
20260501212903 17 304 4.8 14.5 0.00 0.00 0.00 34 1013.4
20260501212400 17 282 20.9 25.7 0.00 0.00 0.00 33 1013.5
20260501211857 17 332 19.3 27.4 0.00 0.00 0.00 37 1013.5
20260501211354 17 298 20.9 25.7 0.00 0.00 0.00 33 1013.8
20260501210851 16 303 22.5 33.8 0.00 0.00 0.00 34 1013.4
20260501210348 17 298 9.7 22.5 0.00 0.00 0.00 32 1013.2
20260501205844 17 272 9.7 16.1 0.00 0.00 0.00 33 1013.5
20260501205341 16 305 17.7 22.5 0.00 0.00 0.00 32 1013.5
20260501204838 17 281 11.3 20.9 0.00 0.00 0.00 34 1013.3
20260501204335 17 315 22.5 33.8 0.00 0.00 0.00 31 1013.5
20260501203831 17 281 20.9 27.4 0.00 0.00 0.00 30 1013.3
20260501203329 17 282 11.3 22.5 0.00 0.00 0.00 32 1013.5
20260501202826 17 288 14.5 27.4 0.00 0.00 0.00 29 1013.2
20260501202323 17 267 17.7 25.7 0.00 0.00 0.00 30 1013.3
20260501201820 18 303 24.1 25.7 0.00 0.00 0.00 33 1013.7
20260501201316 18 255 8.0 17.7 0.00 0.00 0.00 32 1013.7
20260501200812 17 248 8.0 14.5 0.00 0.00 0.00 31 1013.4
20260501200309 17 293 11.3 20.9 0.00 0.00 0.00 30 1013.7
20260501195807 18 309 30.6 35.4 0.00 0.00 0.00 30 1013.5
20260501195305 17 326 11.3 17.7 0.00 0.00 0.00 31 1013.5
20260501194759 17 293 9.7 27.4 0.00 0.00 0.00 31 1013.5
20260501194255 18 294 14.5 14.5 0.00 0.00 0.00 29 1013.5
20260501193751 18 281 12.9 22.5 0.00 0.00 0.00 28 1013.7
20260501193250 18 281 11.3 20.9 0.00 0.00 0.00 29 1013.7
20260501192747 17 266 1.6 14.5 0.00 0.00 0.00 33 1014.0
20260501192244 18 283 6.4 17.7 0.00 0.00 0.00 33 1014.0
20260501191741 18 279 11.3 14.5 0.00 0.00 0.00 30 1014.2
20260501191238 18 312 1.6 6.4 0.00 0.00 0.00 28 1014.0
20260501190735 17 222 6.4 17.7 0.00 0.00 0.00 30 1014.2
20260501190230 18 240 8.0 20.9 0.00 0.00 0.00 30 1014.1
20260501185726 17 319 1.6 4.8 0.00 0.00 0.00 34 1014.1
20260501185223 17 186 9.7 16.1 0.00 0.00 0.00 26 1014.3
20260501184719 17 239 1.6 20.9 0.00 0.00 0.00 30 1014.2
20260501184215 18 297 14.5 24.1 0.00 0.00 0.00 25 1014.3
20260501183711 18 268 0.0 11.3 0.00 0.00 0.00 29 1014.2
20260501183208 17 306 8.0 12.9 0.00 0.00 0.00 28 1014.1
20260501182704 17 286 9.7 12.9 0.00 0.00 0.00 31 1014.3
20260501182201 17 283 12.9 17.7 0.00 0.00 0.00 35 1014.3
20260501181658 17 290 20.9 25.7 0.00 0.00 0.00 26 1014.4
20260501181155 17 286 3.2 9.7 0.00 0.00 0.00 30 1014.4
20260501180653 16 195 11.3 17.7 0.00 0.00 0.00 30 1014.5
20260501180149 17 222 4.8 6.4 0.00 0.00 0.00 31 1014.5
20260501175645 17 146 17.7 22.5 0.00 0.00 0.00 39 1014.4
20260501175143 17 254 6.4 9.7 0.00 0.00 0.00 35 1014.6
20260501174639 17 216 9.7 11.3 0.00 0.00 0.00 32 1014.6
20260501174137 16 42 0.0 3.2 0.00 0.00 0.00 36 1014.9
20260501173634 16 282 11.3 16.1 0.00 0.00 0.00 38 1014.8
20260501173131 16 161 6.4 9.7 0.00 0.00 0.00 33 1014.8
20260501172627 16 142 1.6 9.7 0.00 0.00 0.00 40 1014.8
20260501172122 16 281 4.8 9.7 0.00 0.00 0.00 33 1015.3
20260501171618 15 241 4.8 9.7 0.00 0.00 0.00 36 1015.2